Meteo pe oră la Allenjoie

Astăzi, 19 Ianuarie, Marţi

Timp Temperatura Precipitaţii Vânt Presiune Umiditate
00:00 0°C° 0 mm 1 m/s 736 mmHg 91%
01:00 -1°C° 0 mm 1 m/s 736 mmHg 91%
02:00 -1°C° 0 mm 1 m/s 735 mmHg 90%
03:00 -1°C° 0 mm 1 m/s 734 mmHg 90%
04:00 -3°C° 0 mm 2 m/s 734 mmHg 89%
05:00 -3°C° 0 mm 2 m/s 733 mmHg 89%
06:00 -3°C° 0 mm 2 m/s 733 mmHg 88%
07:00 -2°C° 0 mm 2 m/s 733 mmHg 86%
08:00 -1°C° 0 mm 2 m/s 732 mmHg 84%
09:00 +1°C° 0 mm 2 m/s 732 mmHg 82%
10:00 +2°C° 0 mm 2 m/s 732 mmHg 81%
11:00 +2°C° 0 mm 3 m/s 732 mmHg 80%
12:00 +3°C° 0 mm 3 m/s 731 mmHg 79%
13:00 +3°C° 0 mm 3 m/s 731 mmHg 80%
14:00 +4°C° 0 mm 2 m/s 730 mmHg 82%
15:00 +4°C° 0 mm 2 m/s 730 mmHg 83%
16:00 +3°C° 0 mm 2 m/s 730 mmHg 82%
17:00 +2°C° 0 mm 2 m/s 730 mmHg 80%
18:00 +1°C° 0 mm 2 m/s 729 mmHg 79%
19:00 +2°C° 0 mm 1 m/s 729 mmHg 78%
20:00 +2°C° 0 mm 1 m/s 729 mmHg 77%
21:00 +2°C° 0 mm 1 m/s 729 mmHg 76%
22:00 +2°C° 0 mm 1 m/s 728 mmHg 76%
23:00 +2°C° 0 mm 1 m/s 728 mmHg 75%

Mâine, 20 Ianuarie, Miercuri

Timp Temperatura Precipitaţii Vânt Presiune Umiditate
00:00 +1°C° 0 mm 2 m/s 728 mmHg 75%
01:00 +1°C° 0 mm 2 m/s 728 mmHg 75%
02:00 +1°C° 0 mm 2 m/s 727 mmHg 75%
03:00 +1°C° 0 mm 2 m/s 727 mmHg 75%
04:00 +1°C° 0 mm 2 m/s 726 mmHg 76%
05:00 +2°C° 0 mm 2 m/s 726 mmHg 77%
06:00 +3°C° 0 mm 1 m/s 726 mmHg 78%
07:00 +3°C° 0 mm 1 m/s 726 mmHg 79%
08:00 +4°C° 0 mm 1 m/s 725 mmHg 80%
09:00 +5°C° 0 mm 1 m/s 725 mmHg 81%
10:00 +6°C° 0 mm 1 m/s 724 mmHg 82%
11:00 +7°C° 0 mm 1 m/s 724 mmHg 83%
12:00 +8°C° 0 mm 1 m/s 723 mmHg 84%
13:00 +7°C° 0 mm 1 m/s 723 mmHg 84%
14:00 +7°C° 0 mm 1 m/s 722 mmHg 84%
15:00 +6°C° 0 mm 1 m/s 722 mmHg 84%
16:00 +5°C° 0 mm 1 m/s 722 mmHg 85%
17:00 +4°C° 0 mm 1 m/s 721 mmHg 85%
18:00 +3°C° 0 mm 1 m/s 721 mmHg 85%
19:00 +3°C° 0 mm 1 m/s 721 mmHg 85%
20:00 +3°C° 0 mm 1 m/s 721 mmHg 84%
21:00 +3°C° 0 mm 1 m/s 721 mmHg 84%
22:00 +3°C° 0 mm 1 m/s 721 mmHg 84%
23:00 +3°C° 0 mm 1 m/s 720 mmHg 84%

Poimâine, 21 Ianuarie, Joi

Timp Temperatura Precipitaţii Vânt Presiune Umiditate
00:00 +3°C° 0 mm 1 m/s 720 mmHg 83%
01:00 +3°C° 0 mm 1 m/s 720 mmHg 83%
02:00 +3°C° 0 mm 2 m/s 720 mmHg 82%
03:00 +3°C° 0 mm 2 m/s 720 mmHg 82%
04:00 +3°C° 0 mm 2 m/s 720 mmHg 81%
05:00 +4°C° 0 mm 2 m/s 720 mmHg 80%
06:00 +4°C° 0 mm 3 m/s 720 mmHg 80%
07:00 +4°C° 0 mm 3 m/s 719 mmHg 80%
08:00 +5°C° 0 mm 3 m/s 719 mmHg 80%
09:00 +5°C° 0 mm 4 m/s 719 mmHg 80%
10:00 +6°C° 0.2 mm 5 m/s 719 mmHg 82%
11:00 +6°C° 0.2 mm 5 m/s 719 mmHg 85%
12:00 +7°C° 0.2 mm 6 m/s 719 mmHg 87%
13:00 +7°C° 0.2 mm 6 m/s 719 mmHg 88%
14:00 +6°C° 0.2 mm 5 m/s 718 mmHg 88%
15:00 +6°C° 0.2 mm 5 m/s 718 mmHg 88%
16:00 +6°C° 0 mm 4 m/s 717 mmHg 88%
17:00 +6°C° 0 mm 4 m/s 717 mmHg 87%
18:00 +7°C° 0 mm 3 m/s 716 mmHg 86%
19:00 +6°C° 0.5 mm 4 m/s 716 mmHg 87%
20:00 +6°C° 0.5 mm 4 m/s 716 mmHg 89%
21:00 +6°C° 0.5 mm 5 m/s 716 mmHg 90%
22:00 +6°C° 1 mm 5 m/s 716 mmHg 90%
23:00 +6°C° 1 mm 5 m/s 715 mmHg 90%

22 Ianuarie, Vineri

Timp Temperatura Precipitaţii Vânt Presiune Umiditate
00:00 +4°C° 1 mm 6 m/s 715 mmHg 90%
01:00 +5°C° 0.2 mm 5 m/s 715 mmHg 89%
02:00 +5°C° 0.2 mm 5 m/s 715 mmHg 88%
03:00 +5°C° 0.2 mm 4 m/s 715 mmHg 87%
04:00 +5°C° 0.8 mm 4 m/s 715 mmHg 89%
05:00 +3°C° 0.8 mm 5 m/s 715 mmHg 90%
06:00 +3°C° 0.8 mm 5 m/s 715 mmHg 92%
07:00 +3°C° 1.7 mm 5 m/s 716 mmHg 92%
08:00 +3°C° 1.7 mm 4 m/s 717 mmHg 92%
09:00 +3°C° 1.7 mm 4 m/s 718 mmHg 92%
10:00 +3°C° 0.2 mm 4 m/s 719 mmHg 89%
11:00 +2°C° 0.2 mm 5 m/s 719 mmHg 85%
12:00 +3°C° 0.2 mm 5 m/s 720 mmHg 82%
13:00 +4°C° 0.1 mm 4 m/s 720 mmHg 83%
14:00 +3°C° 0.1 mm 4 m/s 720 mmHg 84%
15:00 +3°C° 0.1 mm 3 m/s 720 mmHg 85%
16:00 +2°C° 0.1 mm 3 m/s 720 mmHg 87%
17:00 +3°C° 0.1 mm 2 m/s 720 mmHg 88%
18:00 +2°C° 0.1 mm 2 m/s 721 mmHg 89%
19:00 +2°C° 0 mm 2 m/s 721 mmHg 89%
20:00 +2°C° 0 mm 2 m/s 721 mmHg 89%
21:00 +2°C° 0 mm 2 m/s 721 mmHg 89%
22:00 +1°C° 0 mm 2 m/s 721 mmHg 90%
23:00 +1°C° 0 mm 2 m/s 721 mmHg 90%

23 Ianuarie, Sâmbătă

Timp Temperatura Precipitaţii Vânt Presiune Umiditate
00:00 +1°C° 0 mm 2 m/s 721 mmHg 91%
01:00 +1°C° 0 mm 2 m/s 721 mmHg 91%
02:00 +1°C° 0 mm 1 m/s 720 mmHg 91%
03:00 +1°C° 0 mm 1 m/s 719 mmHg 90%
04:00 +1°C° 0 mm 1 m/s 718 mmHg 89%
05:00 +1°C° 0 mm 1 m/s 717 mmHg 88%
06:00 +1°C° 0 mm 1 m/s 716 mmHg 87%
07:00 0°C° 0.1 mm 3 m/s 716 mmHg 85%
08:00 0°C° 0.1 mm 5 m/s 716 mmHg 83%
09:00 +2°C° 0.1 mm 6 m/s 716 mmHg 81%
10:00 +2°C° 0.1 mm 7 m/s 716 mmHg 78%
11:00 +2°C° 0.1 mm 8 m/s 716 mmHg 75%
12:00 +2°C° 0.1 mm 9 m/s 716 mmHg 72%
13:00 +2°C° 0.1 mm 8 m/s 716 mmHg 74%
14:00 +2°C° 0.1 mm 7 m/s 716 mmHg 75%
15:00 +2°C° 0.1 mm 6 m/s 716 mmHg 76%
16:00 +1°C° 0.1 mm 6 m/s 717 mmHg 81%
17:00 0°C° 0.1 mm 5 m/s 717 mmHg 85%
18:00 0°C° 0.1 mm 4 m/s 717 mmHg 89%
19:00 -1°C° 0.1 mm 4 m/s 717 mmHg 90%
20:00 -1°C° 0.1 mm 4 m/s 718 mmHg 91%
21:00 -1°C° 0.1 mm 4 m/s 718 mmHg 92%
22:00 0°C° 0 mm 3 m/s 718 mmHg 92%
23:00 0°C° 0 mm 3 m/s 718 mmHg 93%

24 Ianuarie, Duminică

Timp Temperatura Precipitaţii Vânt Presiune Umiditate
00:00 0°C° 0 mm 3 m/s 718 mmHg 93%
01:00 0°C° 0.1 mm 3 m/s 718 mmHg 93%
02:00 0°C° 0.1 mm 3 m/s 718 mmHg 92%
03:00 +1°C° 0.1 mm 3 m/s 718 mmHg 92%
04:00 +1°C° 0.1 mm 3 m/s 718 mmHg 92%
05:00 +1°C° 0.1 mm 3 m/s 718 mmHg 93%
06:00 +1°C° 0.1 mm 3 m/s 718 mmHg 93%
07:00 +1°C° 0 mm 3 m/s 718 mmHg 91%
08:00 +1°C° 0 mm 3 m/s 718 mmHg 90%
09:00 0°C° 0 mm 4 m/s 719 mmHg 88%
10:00 +1°C° 0.1 mm 4 m/s 719 mmHg 85%
11:00 +1°C° 0.1 mm 5 m/s 719 mmHg 82%
12:00 +2°C° 0.1 mm 5 m/s 719 mmHg 79%
13:00 +1°C° 0.6 mm 6 m/s 718 mmHg 84%
14:00 +1°C° 0.6 mm 6 m/s 718 mmHg 90%
15:00 -1°C° 0.6 mm 7 m/s 718 mmHg 95%
16:00 -1°C° 0.9 mm 6 m/s 719 mmHg 94%
17:00 -1°C° 0.9 mm 5 m/s 719 mmHg 93%
18:00 -1°C° 0.9 mm 4 m/s 719 mmHg 92%
19:00 -1°C° 0.1 mm 5 m/s 720 mmHg 91%
20:00 -2°C° 0.1 mm 5 m/s 721 mmHg 91%
21:00 -2°C° 0.1 mm 5 m/s 721 mmHg 91%
22:00 -3°C° 0.2 mm 6 m/s 722 mmHg 92%
23:00 -3°C° 0.2 mm 6 m/s 722 mmHg 93%
Arată mai mult

Formular de consimțământ

Meteoprog și furnizorii noștri de servicii pot stoca și accesa date personale, precum cookies, identificatori de dispozitiv sau alte tehnologii similare pe dispozitivul dumneavoastră și procesa astfel de date pentru a personaliza conținutul și reclamele, dar și pentru a oferi caracteristici de social media și pentru a analiza traficul.

  • Stocarea și/sau accesarea informațiilor pe dispozitivul dumneavoastră

    Cookies, identificatori de dispozitiv sau alte informații pot fi stocate sau accesate pe dispozitiv în scopurile indicate mai sus.

  • Reclame și conținut personalizat, evaluarea reclamelor și a conținutului, informații despre audiențe și dezvoltarea produselor

    Reclamele și conținutul pot fi personalizate pe baza unui profil. Pot fi adăugate date suplimentare pentru a personaliza mai bine reclamele și conținutul. Performanța reclamelor și conținutului poate fi măsurată. Pot fi obținute informații despre utilizatorii care au văzut reclamele și conținutul. Aceste date pot fi utilizate pentru a dezvolta sau îmbunătăți experiența utilizatorilor, sistemele și software-ul.

Dând clic pe ‘Sunt de acord’, permiteți utilizarea cookie-urilor menționate, a identificatorilor de dispozitiv, balizelor web sau altor tehnologii similare. Setările pot fi modificate din browser-ul dispozitivului dumneavoastră.

În anumite scopuri, interesele legitime pot prima asupra consimțământului. Puteți citi mai multe informații în acest sens în Politica privind Confidențialitatea Datelor și Cookie.